Location: ??????
(41.3794°N, 22.5014°E)
Time: 07:42:15
(UTC+00:00)

USA 238 DEB - Pass Details

Date: 30 November 2020
Orbit: 997 x 1215 km, 63.4° (Epoch: 11 January)

Event Time Altitude Azimuth Distance (km) Brightness Sun altitude
Rises 17:45:59 0° 225° (SW) 3,716 7.2 -30.3°
Reaches altitude 10° 17:48:34 10° 229° (SW) 2,782 6.5 -30.7°
Maximum altitude 17:55:02 61° 309° (NW) 1,168 3.9 -31.9°
Enters shadow 17:55:56 56° 344° (NNW) 1,227 3.9 -32.1°
